Home > Weather > La-Chaux-de-Fonds > Past weeks

Flag for Switzerland Past Weather in La-Chaux-de-Fonds, Neuchâtel, Switzerland — Yesterday and Last 2 Weeks

Now
64 °F

Broken clouds.


Feels Like: 64 °F
Forecast: 55 / 66 °F
Wind: 5 mph from North

Location: Les Eplatures

Current Time: Jul 24, 2016 at 12:42:29 PM

Latest Report: Jul 24, 2016 at 12:20 PM


Visibility: N/A

Pressure: 30.21 "Hg (26.86 "Hg at 1000m altitude)

Humidity: 78%

Dew Point: 57 °F

Location of La-Chaux-de-FondsLocation

Past Weather in La-Chaux-de-Fonds — Graph

°F

La-Chaux-de-Fonds Temperature Yesterday

Maximum temperature yesterday: 68 °F (at 4:20 PM)
Minimum temperature yesterday: 57 °F (at 12:50 AM)
Average temperature yesterday: 61 °F

High & Low Weather Summary for the Past Weeks

 TemperatureHumidityPressure
High88 °F (Jul 20, 3:20 PM)100% (Jul 12, 3:50 AM)30.36 "Hg (Jul 12, 3:50 AM)
Low41 °F (Jul 16, 3:20 AM)31% (Jul 20, 3:50 PM)30.04 "Hg (Jul 11, 4:50 PM)
Average61 °F77%30.18 "Hg
* Reported Jul 9 11:20 AM — Jul 24 11:20 AM, La-Chaux-de-Fonds, Weather by CustomWeather, © 2016

Note: Actual official high and low records may vary slightly from our data, if they occured in-between our weather recording intervals... More about our weather records

Advertising

La-Chaux-de-Fonds Weather History for the Previous 24 Hours

Scroll right to see more
 ConditionsComfort  
Time TempWeatherWind HumidityBarometerVisibility
11:20 AM
Sun, Jul 24
64 °FPartly sunny.6 mph78%30.18 "HgN/A
10:50 AM64 °FBroken clouds.7 mph78%30.18 "HgN/A
10:20 AM64 °FPartly sunny.3 mph78%30.18 "HgN/A
9:50 AM64 °FPartly sunny.3 mph78%30.18 "HgN/A
9:20 AM63 °FScattered clouds.2 mph83%30.18 "HgN/A
8:50 AM61 °FBroken clouds.2 mph88%30.18 "HgN/A
8:20 AM61 °FBroken clouds.2 mph88%30.18 "HgN/A
7:50 AM59 °FPassing clouds.1 mph94%30.18 "HgN/A
7:20 AM57 °FCool.No wind100%30.18 "HgN/A
6:50 AM57 °FPassing clouds.1 mph94%30.18 "HgN/A
6:20 AM59 °FPartly cloudy.1 mph94%30.18 "HgN/A
5:50 AM59 °FOvercast.2 mph94%30.18 "HgN/A
5:20 AM57 °FLow clouds.1 mph100%30.18 "HgN/A
4:50 AM57 °FLow clouds.1 mph100%30.18 "HgN/A
4:20 AM57 °FPassing clouds.2 mph100%30.18 "HgN/A
3:50 AM57 °FPassing clouds.2 mph100%30.18 "HgN/A
3:20 AM59 °FPassing clouds.2 mph94%30.21 "HgN/A
2:50 AM59 °FOvercast.2 mph94%30.21 "HgN/A
2:20 AM59 °FPassing clouds.1 mph94%30.21 "HgN/A
1:50 AM59 °FPassing clouds.1 mph94%30.21 "HgN/A
1:20 AM57 °FClear.2 mph94%30.21 "HgN/A
12:50 AM59 °FMostly cloudy.No wind94%30.21 "HgN/A
12:20 AM59 °FPassing clouds.1 mph94%30.21 "HgN/A
11:50 PM
Sat, Jul 23
59 °FPassing clouds.1 mph94%30.21 "HgN/A
11:20 PM59 °FPassing clouds.1 mph94%30.21 "HgN/A
10:50 PM59 °FBroken clouds.2 mph94%30.21 "HgN/A
10:20 PM61 °FBroken clouds.1 mph88%30.21 "HgN/A
9:50 PM61 °FOvercast.1 mph88%30.21 "HgN/A
9:20 PM61 °FPartly sunny.3 mph88%30.18 "HgN/A
8:50 PM63 °FBroken clouds.6 mph77%30.18 "HgN/A
8:20 PM64 °FPassing clouds.3 mph83%30.18 "HgN/A
7:50 PM64 °FBroken clouds.6 mph83%30.18 "HgN/A
7:20 PM64 °FBroken clouds.6 mph78%30.15 "HgN/A
6:50 PM66 °FBroken clouds.6 mph78%30.15 "HgN/A
6:20 PM64 °FPartly sunny.6 mph83%30.15 "HgN/A
5:50 PM66 °FPartly sunny.5 mph78%30.15 "HgN/A
5:20 PM66 °FClear.3 mph78%30.15 "HgN/A
4:50 PM66 °FScattered clouds.6 mph78%30.15 "HgN/A
4:20 PM68 °FOvercast.5 mph78%30.15 "HgN/A
3:50 PM66 °FBroken clouds.6 mph78%30.15 "HgN/A
3:20 PM66 °FBroken clouds.6 mph78%30.15 "HgN/A
2:50 PM66 °FScattered clouds.6 mph73%30.15 "HgN/A
2:20 PM64 °FBroken clouds.5 mph78%30.15 "HgN/A
1:50 PM64 °FOvercast.5 mph78%30.15 "HgN/A
1:20 PM64 °FBroken clouds.5 mph83%30.15 "HgN/A
12:50 PM64 °FBroken clouds.5 mph83%30.15 "HgN/A
12:20 PM64 °FBroken clouds.5 mph78%30.15 "HgN/A
Weather by CustomWeather, © 2016

See weather overviewHow to use our weather pages